| time (UTC) | temp F | wind direction | speed MPH | gust MPH | rain 1hr in | rain 24hr in | rain mn in | humidity % | barometer mb |
| 20260510173236 | 60 | 270 | 3.0 | 4.0 | 0.00 | 0.67 | 0.00 | 74 | 1007.9 |
| 20260510172232 | 59 | 170 | 4.0 | 7.0 | 0.00 | 0.67 | 0.00 | 75 | 1007.8 |
| 20260510171228 | 59 | 277 | 4.0 | 13.0 | 0.00 | 0.67 | 0.00 | 75 | 1007.7 |
| 20260510170244 | 59 | 187 | 4.0 | 7.0 | 0.00 | 0.67 | 0.00 | 76 | 1007.7 |
| 20260510165219 | 58 | 179 | 6.0 | 9.0 | 0.00 | 0.71 | 0.00 | 79 | 1007.9 |
| 20260510164215 | 60 | 293 | 7.0 | 11.0 | 0.00 | 0.77 | 0.00 | 77 | 1007.9 |
| 20260510163311 | 60 | 143 | 6.0 | 11.0 | 0.00 | 0.77 | 0.00 | 79 | 1007.7 |
| 20260510162307 | 60 | 185 | 5.0 | 8.0 | 0.00 | 0.77 | 0.00 | 81 | 1007.7 |
| 20260510161302 | 63 | 255 | 8.0 | 14.0 | 0.00 | 0.77 | 0.00 | 69 | 1007.5 |
| 20260510160258 | 64 | 240 | 4.0 | 7.0 | 0.00 | 0.77 | 0.00 | 69 | 1007.2 |
| 20260510155254 | 64 | 193 | 4.0 | 8.0 | 0.00 | 0.77 | 0.00 | 69 | 1007.0 |
| 20260510154250 | 65 | 217 | 6.0 | 9.0 | 0.00 | 0.77 | 0.00 | 66 | 1006.9 |
| 20260510153245 | 66 | 231 | 6.0 | 11.0 | 0.00 | 0.77 | 0.00 | 65 | 1006.8 |
| 20260510152241 | 64 | 246 | 6.0 | 11.0 | 0.00 | 0.77 | 0.00 | 69 | 1006.8 |
| 20260510151237 | 68 | 203 | 4.0 | 6.0 | 0.00 | 0.77 | 0.00 | 55 | 1006.5 |
| 20260510150232 | 68 | 218 | 2.0 | 4.0 | 0.00 | 0.77 | 0.00 | 53 | 1006.4 |
| 20260510145228 | 70 | 217 | 4.0 | 8.0 | 0.00 | 0.77 | 0.00 | 51 | 1006.3 |
| 20260510144223 | 71 | 271 | 1.0 | 4.0 | 0.00 | 0.77 | 0.00 | 52 | 1006.6 |
| 20260510143219 | 71 | 244 | 1.0 | 4.0 | 0.00 | 0.77 | 0.00 | 53 | 1006.6 |
| 20260510142215 | 70 | 129 | 2.0 | 4.0 | 0.00 | 0.77 | 0.00 | 53 | 1006.7 |
| 20260510141311 | 70 | 273 | 2.0 | 6.0 | 0.00 | 0.77 | 0.00 | 55 | 1006.9 |
| 20260510140307 | 68 | 203 | 4.0 | 8.0 | 0.00 | 0.77 | 0.00 | 55 | 1007.2 |
| 20260510135305 | 69 | 242 | 4.0 | 7.0 | 0.00 | 0.77 | 0.00 | 55 | 1007.2 |
| 20260510134258 | 69 | 167 | 5.0 | 11.0 | 0.00 | 0.77 | 0.00 | 56 | 1007.3 |
| 20260510133254 | 68 | 139 | 4.0 | 9.0 | 0.00 | 0.77 | 0.00 | 57 | 1007.5 |
| 20260510132250 | 69 | 191 | 3.0 | 6.0 | 0.00 | 0.77 | 0.00 | 56 | 1007.6 |
| 20260510131246 | 68 | 193 | 4.0 | 11.0 | 0.00 | 0.77 | 0.00 | 56 | 1007.5 |
| 20260510130242 | 68 | 197 | 4.0 | 8.0 | 0.00 | 0.77 | 0.00 | 57 | 1007.7 |
| 20260510125237 | 67 | 172 | 4.0 | 8.0 | 0.00 | 0.77 | 0.00 | 58 | 1007.7 |
| 20260510124233 | 67 | 165 | 3.0 | 6.0 | 0.00 | 0.77 | 0.00 | 59 | 1008.0 |
| 20260510123228 | 67 | 75 | 4.0 | 9.0 | 0.00 | 0.77 | 0.00 | 58 | 1008.1 |
| 20260510122244 | 66 | 215 | 4.0 | 8.0 | 0.00 | 0.77 | 0.00 | 58 | 1008.2 |
| 20260510121220 | 66 | 239 | 4.0 | 6.0 | 0.00 | 0.77 | 0.00 | 59 | 1008.3 |
| 20260510120215 | 65 | 203 | 6.0 | 11.0 | 0.00 | 0.77 | 0.00 | 57 | 1008.4 |
| 20260510115312 | 64 | 203 | 5.0 | 8.0 | 0.00 | 0.77 | 0.00 | 58 | 1008.5 |
| 20260510114309 | 63 | 225 | 4.0 | 8.0 | 0.00 | 0.77 | 0.00 | 60 | 1008.8 |
| 20260510113303 | 63 | 203 | 4.0 | 7.0 | 0.00 | 0.77 | 0.00 | 61 | 1008.7 |
| 20260510112259 | 63 | 225 | 3.0 | 6.0 | 0.00 | 0.77 | 0.00 | 62 | 1008.7 |
| 20260510111254 | 63 | 225 | 3.0 | 6.0 | 0.00 | 0.77 | 0.00 | 62 | 1008.8 |
| 20260510110310 | 64 | 235 | 4.0 | 8.0 | 0.00 | 0.77 | 0.00 | 60 | 1009.0 |
| 20260510105246 | 63 | 283 | 5.0 | 9.0 | 0.00 | 0.77 | 0.00 | 60 | 1009.0 |
| 20260510104242 | 64 | 204 | 4.0 | 15.0 | 0.00 | 0.78 | 0.00 | 61 | 1008.9 |
| 20260510103238 | 63 | 217 | 4.0 | 9.0 | 0.00 | 0.86 | 0.00 | 61 | 1009.0 |
| 20260510102234 | 63 | 225 | 4.0 | 8.0 | 0.00 | 0.91 | 0.00 | 61 | 1009.1 |
| 20260510101249 | 63 | 129 | 4.0 | 7.0 | 0.00 | 0.91 | 0.00 | 62 | 1009.0 |
| 20260510100225 | 63 | 203 | 3.0 | 8.0 | 0.00 | 0.91 | 0.00 | 62 | 1008.9 |
| 20260510095220 | 63 | 203 | 3.0 | 4.0 | 0.00 | 0.91 | 0.00 | 61 | 1009.0 |
| 20260510094216 | 62 | 225 | 5.0 | 11.0 | 0.00 | 0.91 | 0.00 | 66 | 1009.1 |
| 20260510093312 | 62 | 176 | 3.0 | 6.0 | 0.00 | 0.91 | 0.00 | 67 | 1009.2 |
| 20260510092328 | 61 | 203 | 4.0 | 7.0 | 0.00 | 0.91 | 0.00 | 70 | 1009.2 |
| 20260510091303 | 61 | 210 | 2.0 | 4.0 | 0.00 | 0.91 | 0.00 | 73 | 1009.2 |
| 20260510090304 | 60 | 186 | 3.0 | 6.0 | 0.00 | 0.91 | 0.00 | 72 | 1009.2 |
| 20260510085254 | 60 | 216 | 3.0 | 6.0 | 0.00 | 0.91 | 0.00 | 74 | 1009.2 |
| 20260510084250 | 58 | 135 | 1.0 | 2.0 | 0.00 | 0.91 | 0.00 | 80 | 1009.3 |
| 20260510083246 | 58 | 225 | 2.0 | 4.0 | 0.00 | 0.91 | 0.00 | 81 | 1009.4 |
| 20260510082242 | 56 | 217 | 2.0 | 4.0 | 0.00 | 0.91 | 0.00 | 83 | 1009.3 |
| 20260510081238 | 55 | 195 | 2.0 | 2.0 | 0.00 | 0.91 | 0.00 | 87 | 1009.3 |
| 20260510080233 | 54 | 293 | 1.0 | 4.0 | 0.00 | 0.91 | 0.00 | 91 | 1009.3 |
| 20260510075229 | 53 | 225 | 1.0 | 2.0 | 0.00 | 0.91 | 0.00 | 93 | 1009.3 |
| 20260510074225 | 52 | 203 | 1.0 | 2.0 | 0.00 | 0.91 | 0.00 | 94 | 1009.2 |
| 20260510073221 | 52 | 0.0 | 0.0 | 0.00 | 0.91 | 0.00 | 95 | 1009.2 | |
| 20260510072216 | 51 | 203 | 0.0 | 2.0 | 0.00 | 0.91 | 0.00 | 95 | 1009.2 |
| 20260510071313 | 51 | 0.0 | 2.0 | 0.00 | 0.91 | 0.00 | 95 | 1009.2 | |
| 20260510070307 | 51 | 225 | 0.0 | 2.0 | 0.00 | 0.91 | 0.00 | 96 | 1009.0 |
| 20260510065306 | 50 | 225 | 0.0 | 2.0 | 0.00 | 0.91 | 0.00 | 96 | 1008.9 |
| 20260510064259 | 50 | 0.0 | 2.0 | 0.00 | 0.91 | 0.00 | 96 | 1008.8 | |
| 20260510063255 | 50 | 0.0 | 2.0 | 0.00 | 0.91 | 0.00 | 96 | 1009.0 | |
| 20260510062251 | 49 | 213 | 1.0 | 2.0 | 0.00 | 0.91 | 0.00 | 96 | 1008.9 |
| 20260510061247 | 48 | 203 | 0.0 | 2.0 | 0.00 | 0.91 | 0.00 | 96 | 1008.8 |
| 20260510060242 | 48 | 225 | 0.0 | 2.0 | 0.00 | 0.91 | 0.00 | 96 | 1008.7 |
| 20260510055238 | 47 | 221 | 1.0 | 2.0 | 0.00 | 0.91 | 0.00 | 96 | 1008.8 |
| 20260510054234 | 47 | 225 | 2.0 | 4.0 | 0.00 | 0.91 | 0.00 | 96 | 1008.7 |
| 20260510053230 | 47 | 225 | 1.0 | 4.0 | 0.00 | 0.91 | 0.00 | 97 | 1008.6 |
| 20260510052226 | 48 | 225 | 1.0 | 2.0 | 0.00 | 0.91 | 0.00 | 96 | 1008.6 |
| 20260510051221 | 48 | 212 | 2.0 | 4.0 | 0.00 | 0.91 | 0.00 | 97 | 1008.4 |
| 20260510050217 | 47 | 203 | 1.0 | 2.0 | 0.00 | 0.91 | 0.00 | 97 | 1008.4 |
| 20260510045333 | 47 | 203 | 0.0 | 2.0 | 0.00 | 0.91 | 0.00 | 97 | 1008.5 |
| 20260510044308 | 48 | 203 | 1.0 | 2.0 | 0.00 | 0.91 | 0.00 | 97 | 1008.4 |
| 20260510043304 | 47 | 0.0 | 0.0 | 0.00 | 0.91 | 0.00 | 97 | 1008.5 | |
| 20260510042359 | 46 | 0.0 | 0.0 | 0.00 | 0.91 | 0.00 | 96 | 1008.5 | |
| 20260510041254 | 48 | 232 | 1.0 | 2.0 | 0.00 | 0.91 | 0.00 | 97 | 1008.5 |
| 20260510040310 | 48 | 225 | 2.0 | 2.0 | 0.00 | 0.91 | 0.00 | 96 | 1008.5 |
| 20260510035306 | 48 | 0.0 | 0.0 | 0.00 | 0.91 | 0.00 | 96 | 1008.4 | |
| 20260510034241 | 48 | 195 | 2.0 | 4.0 | 0.00 | 0.91 | 0.00 | 96 | 1008.5 |
| 20260510033237 | 48 | 212 | 3.0 | 4.0 | 0.00 | 0.91 | 0.00 | 96 | 1008.4 |
| 20260510032253 | 48 | 222 | 2.0 | 4.0 | 0.00 | 0.91 | 0.00 | 96 | 1008.5 |
| 20260510031249 | 48 | 210 | 1.0 | 2.0 | 0.00 | 0.91 | 0.00 | 96 | 1008.4 |
| 20260510030225 | 48 | 210 | 1.0 | 2.0 | 0.00 | 0.91 | 0.00 | 96 | 1008.5 |
| 20260510025241 | 48 | 203 | 2.0 | 4.0 | 0.00 | 0.91 | 0.00 | 96 | 1008.4 |
| 20260510024216 | 48 | 225 | 3.0 | 4.0 | 0.00 | 0.91 | 0.00 | 96 | 1008.5 |
| 20260510023313 | 48 | 0.0 | 0.0 | 0.00 | 0.91 | 0.00 | 96 | 1008.5 | |
| 20260510022308 | 47 | 0.0 | 0.0 | 0.00 | 0.91 | 0.00 | 96 | 1008.5 | |
| 20260510021303 | 48 | 240 | 1.0 | 2.0 | 0.00 | 0.91 | 0.00 | 96 | 1008.4 |
| 20260510020259 | 48 | 225 | 1.0 | 4.0 | 0.00 | 0.91 | 0.00 | 96 | 1008.3 |
| 20260510015315 | 49 | 0.0 | 0.0 | 0.00 | 0.91 | 0.00 | 96 | 1008.4 | |
| 20260510014311 | 49 | 0.0 | 0.0 | 0.00 | 0.91 | 0.00 | 96 | 1008.5 | |
| 20260510013247 | 49 | 225 | 0.0 | 2.0 | 0.00 | 0.91 | 0.00 | 96 | 1008.5 |
| 20260510012242 | 49 | 208 | 3.0 | 4.0 | 0.00 | 0.91 | 0.00 | 96 | 1008.5 |
| 20260510011258 | 50 | 187 | 2.0 | 4.0 | 0.00 | 0.91 | 0.00 | 96 | 1008.5 |
| 20260510010254 | 50 | 215 | 1.0 | 2.0 | 0.00 | 0.91 | 0.00 | 96 | 1008.8 |
| 20260510005230 | 50 | 225 | 2.0 | 4.0 | 0.00 | 0.91 | 0.00 | 96 | 1008.8 |
| 20260510004225 | 50 | 203 | 2.0 | 4.0 | 0.00 | 0.91 | 0.00 | 96 | 1008.8 |
| 20260510003221 | 50 | 0.0 | 0.0 | 0.00 | 0.91 | 0.00 | 96 | 1009.0 | |
| 20260510002217 | 50 | 0.0 | 0.0 | 0.00 | 0.91 | 0.00 | 96 | 1009.3 | |
| 20260510001313 | 50 | 0.0 | 0.0 | 0.00 | 0.91 | 0.00 | 96 | 1009.3 | |
| 20260510000311 | 51 | 203 | 1.0 | 2.0 | 0.00 | 0.91 | 0.00 | 96 | 1009.3 |
| 20260509235307 | 51 | 203 | 1.0 | 4.0 | 0.00 | 0.91 | 0.00 | 96 | 1009.4 |
| 20260509234300 | 51 | 218 | 2.0 | 2.0 | 0.00 | 0.91 | 0.00 | 96 | 1009.5 |
| 20260509233256 | 51 | 195 | 2.0 | 4.0 | 0.00 | 0.91 | 0.00 | 96 | 1009.5 |
| 20260509232252 | 51 | 193 | 2.0 | 2.0 | 0.00 | 0.91 | 0.00 | 96 | 1009.5 |
| 20260509231247 | 52 | 225 | 1.0 | 2.0 | 0.00 | 0.91 | 0.00 | 96 | 1009.3 |
| 20260509230303 | 52 | 203 | 1.0 | 2.0 | 0.00 | 0.91 | 0.00 | 96 | 1009.4 |
| 20260509225239 | 52 | 0.0 | 0.0 | 0.00 | 0.91 | 0.00 | 96 | 1009.5 | |
| 20260509224235 | 53 | 180 | 0.0 | 2.0 | 0.00 | 0.91 | 0.00 | 96 | 1009.3 |
| 20260509223231 | 53 | 0.0 | 0.0 | 0.00 | 0.91 | 0.00 | 96 | 1009.3 | |
| 20260509222226 | 53 | 0.0 | 0.0 | 0.00 | 0.91 | 0.00 | 96 | 1009.5 | |
| 20260509221223 | 53 | 0.0 | 0.0 | 0.00 | 0.91 | 0.00 | 96 | 1009.3 | |
| 20260509220218 | 53 | 0.0 | 0.0 | 0.00 | 0.91 | 0.00 | 96 | 1009.2 | |
| 20260509215314 | 54 | 0.0 | 0.0 | 0.00 | 0.91 | 0.91 | 96 | 1009.3 | |
| 20260509214310 | 54 | 0.0 | 0.0 | 0.00 | 0.91 | 0.91 | 96 | 1009.3 | |
| 20260509213306 | 54 | 0.0 | 0.0 | 0.00 | 0.91 | 0.91 | 96 | 1009.4 | |
| 20260509212322 | 54 | 0.0 | 0.0 | 0.01 | 0.91 | 0.91 | 96 | 1009.4 | |
| 20260509211257 | 54 | 0.0 | 0.0 | 0.22 | 0.91 | 0.91 | 96 | 1009.3 | |
| 20260509210253 | 54 | 0.0 | 0.0 | 0.34 | 0.91 | 0.91 | 96 | 1009.3 | |
| 20260509205249 | 54 | 0.0 | 0.0 | 0.34 | 0.91 | 0.91 | 96 | 1009.1 | |
| 20260509204245 | 54 | 0.0 | 0.0 | 0.34 | 0.91 | 0.91 | 95 | 1009.0 | |
| 20260509203300 | 54 | 289 | 1.0 | 2.0 | 0.34 | 0.91 | 0.91 | 95 | 1009.0 |
| 20260509202236 | 55 | 308 | 2.0 | 4.0 | 0.33 | 0.90 | 0.90 | 95 | 1009.0 |
| 20260509201232 | 55 | 281 | 6.0 | 11.0 | 0.12 | 0.69 | 0.69 | 95 | 1008.8 |
| 20260509200248 | 56 | 90 | 0.0 | 2.0 | 0.00 | 0.57 | 0.57 | 95 | 1007.7 |
| 20260509195243 | 56 | 86 | 1.0 | 2.0 | 0.00 | 0.57 | 0.57 | 95 | 1007.7 |
| 20260509194218 | 56 | 83 | 2.0 | 2.0 | 0.00 | 0.57 | 0.57 | 94 | 1007.8 |
| 20260509193334 | 56 | 94 | 1.0 | 2.0 | 0.00 | 0.57 | 0.57 | 94 | 1007.7 |
| 20260509192350 | 56 | 102 | 1.0 | 2.0 | 0.00 | 0.57 | 0.57 | 94 | 1007.3 |
| 20260509191306 | 55 | 0.0 | 0.0 | 0.00 | 0.57 | 0.57 | 93 | 1007.3 | |
| 20260509190301 | 55 | 0.0 | 0.0 | 0.00 | 0.57 | 0.57 | 93 | 1007.3 | |
| 20260509185257 | 55 | 0.0 | 2.0 | 0.21 | 0.57 | 0.57 | 93 | 1007.2 | |
| 20260509184253 | 55 | 0.0 | 0.0 | 0.33 | 0.57 | 0.57 | 92 | 1007.1 | |
| 20260509183309 | 54 | 0.0 | 0.0 | 0.33 | 0.57 | 0.57 | 92 | 1006.9 | |
| 20260509182244 | 54 | 293 | 1.0 | 2.0 | 0.33 | 0.57 | 0.57 | 92 | 1007.1 |
| 20260509181240 | 54 | 0.0 | 0.0 | 0.33 | 0.57 | 0.57 | 91 | 1007.0 | |
| 20260509180256 | 54 | 270 | 2.0 | 4.0 | 0.33 | 0.57 | 0.57 | 91 | 1007.0 |
| 20260509175232 | 55 | 293 | 4.0 | 8.0 | 0.15 | 0.35 | 0.35 | 91 | 1007.3 |
| 20260509174308 | 58 | 0.0 | 0.0 | 0.09 | 0.24 | 0.24 | 92 | 1006.6 |